TimeCST,TemperatureF,Dew PointF,Humidity,Sea Level PressureIn,VisibilityMPH,Wind Direction,Wind SpeedMPH,Gust SpeedMPH,PrecipitationIn,Events,Conditions,WindDirDegrees,DateUTC
12:15 AM,5.0,-0.4,78,30.01,10.0,South,11.5,-,N/A,,Overcast,180,2014-01-22 06:15:00
12:35 AM,6.8,-0.4,72,30.00,10.0,South,12.7,-,N/A,,Overcast,180,2014-01-22 06:35:00
12:55 AM,6.8,1.4,79,30.00,10.0,South,11.5,-,N/A,,Overcast,190,2014-01-22 06:55:00
1:15 AM,6.8,1.4,79,29.99,10.0,South,10.4,-,N/A,,Overcast,190,2014-01-22 07:15:00
1:35 AM,6.8,1.4,79,29.97,10.0,South,12.7,-,N/A,,Overcast,190,2014-01-22 07:35:00
1:55 AM,6.8,1.4,79,29.97,10.0,South,9.2,-,N/A,,Overcast,190,2014-01-22 07:55:00
2:15 AM,8.6,1.4,73,29.97,10.0,South,10.4,-,N/A,Snow,Light Snow,190,2014-01-22 08:15:00
2:35 AM,8.6,1.4,73,29.95,5.0,South,10.4,-,N/A,,Haze,190,2014-01-22 08:35:00
2:55 AM,8.6,1.4,73,29.95,4.0,South,10.4,-,N/A,Snow,Light Snow,190,2014-01-22 08:55:00
3:15 AM,8.6,3.2,79,29.94,9.0,SSW,9.2,-,N/A,,Mostly Cloudy,210,2014-01-22 09:15:00
3:35 AM,8.6,3.2,79,29.94,10.0,SSW,9.2,-,N/A,,Overcast,210,2014-01-22 09:35:00
3:55 AM,8.6,3.2,79,29.94,6.0,SSW,9.2,-,N/A,,Haze,210,2014-01-22 09:55:00
4:15 AM,8.6,3.2,79,29.92,5.0,SSW,8.1,-,N/A,Snow,Light Snow,210,2014-01-22 10:15:00
4:35 AM,8.6,3.2,79,29.93,8.0,WSW,8.1,-,N/A,,Overcast,240,2014-01-22 10:35:00
4:55 AM,10.4,5.0,79,29.93,10.0,West,8.1,-,N/A,Snow,Light Snow,260,2014-01-22 10:55:00
5:15 AM,10.4,5.0,79,29.93,7.0,West,8.1,-,N/A,Snow,Light Snow,280,2014-01-22 11:15:00
5:35 AM,10.4,5.0,79,29.93,7.0,WNW,9.2,-,N/A,Snow,Light Snow,290,2014-01-22 11:35:00
5:55 AM,12.2,5.0,73,29.93,9.0,NW,20.7,-,N/A,Snow,Light Snow,320,2014-01-22 11:55:00
6:15 AM,10.4,3.2,73,29.94,9.0,NW,18.4,-,N/A,,Overcast,320,2014-01-22 12:15:00
6:35 AM,10.4,5.0,79,29.96,7.0,NW,15.0,-,N/A,Snow,Light Snow,310,2014-01-22 12:35:00
6:55 AM,8.6,3.2,79,29.96,4.0,NW,15.0,-,N/A,Snow,Light Snow,310,2014-01-22 12:55:00
7:15 AM,6.8,1.4,79,29.96,8.0,NW,13.8,-,N/A,,Overcast,310,2014-01-22 13:15:00
7:35 AM,6.8,-0.4,72,29.97,10.0,WNW,13.8,-,N/A,,Overcast,300,2014-01-22 13:35:00
7:55 AM,6.8,-0.4,72,29.97,10.0,WNW,11.5,-,N/A,,Overcast,300,2014-01-22 13:55:00
8:15 AM,6.8,-0.4,72,29.97,10.0,WNW,12.7,-,N/A,,Overcast,300,2014-01-22 14:15:00
8:35 AM,6.8,-0.4,72,29.98,10.0,WNW,13.8,-,N/A,,Overcast,300,2014-01-22 14:35:00
8:55 AM,6.8,-0.4,72,29.99,7.0,NW,17.3,-,N/A,Snow,Light Snow,310,2014-01-22 14:55:00
9:15 AM,6.8,-0.4,72,29.98,7.0,NW,16.1,-,N/A,Snow,Light Snow,310,2014-01-22 15:15:00
9:35 AM,6.8,1.4,79,29.99,3.0,NW,18.4,24.2,N/A,Snow,Light Snow,310,2014-01-22 15:35:00
9:55 AM,8.6,1.4,73,29.99,2.0,NW,19.6,25.3,N/A,Snow,Light Snow,310,2014-01-22 15:55:00
10:15 AM,8.6,1.4,73,30.00,1.0,NW,18.4,28.8,N/A,Snow,Light Snow,310,2014-01-22 16:15:00
10:35 AM,10.4,3.2,73,30.00,1.8,NW,21.9,-,N/A,Snow,Light Snow,320,2014-01-22 16:35:00
10:55 AM,10.4,3.2,73,29.99,2.5,WNW,20.7,27.6,N/A,,Haze,300,2014-01-22 16:55:00
11:15 AM,10.4,3.2,73,29.99,3.0,NW,20.7,29.9,N/A,,Haze,310,2014-01-22 17:15:00
11:35 AM,12.2,3.2,67,29.99,4.0,NW,24.2,-,N/A,,Haze,320,2014-01-22 17:35:00
11:55 AM,10.4,5.0,79,29.99,0.5,NW,28.8,-,N/A,Snow,Light Snow,310,2014-01-22 17:55:00
12:15 PM,10.4,3.2,73,29.99,1.2,NW,26.5,36.8,N/A,Snow,Light Snow,320,2014-01-22 18:15:00
12:35 PM,8.6,3.2,79,29.99,0.5,NNW,25.3,34.5,N/A,Snow,Light Snow,330,2014-01-22 18:35:00
12:55 PM,8.6,1.4,73,30.00,0.8,NW,25.3,33.4,N/A,Snow,Light Snow,320,2014-01-22 18:55:00
1:15 PM,8.6,1.4,73,30.00,0.8,NNW,28.8,-,N/A,Snow,Light Snow,330,2014-01-22 19:15:00
1:35 PM,6.8,-0.4,72,30.02,0.5,NNW,28.8,40.3,N/A,Snow,Light Snow,330,2014-01-22 19:35:00
1:55 PM,6.8,-2.2,67,30.03,2.0,NNW,24.2,36.8,N/A,Snow,Light Snow,330,2014-01-22 19:55:00
2:15 PM,5.0,-0.4,78,30.04,0.5,NNW,24.2,32.2,N/A,Snow,Light Snow,330,2014-01-22 20:15:00
2:35 PM,6.8,-4.0,61,30.05,1.8,NW,23.0,31.1,N/A,,Haze,320,2014-01-22 20:35:00
2:55 PM,5.0,-2.2,72,30.07,0.8,NW,25.3,34.5,N/A,,Haze,310,2014-01-22 20:55:00
3:15 PM,5.0,-4.0,66,30.08,1.2,NW,25.3,32.2,N/A,Snow,Light Snow,310,2014-01-22 21:15:00
3:35 PM,3.2,-4.0,72,30.09,0.5,NW,27.6,34.5,N/A,Snow,Light Snow,310,2014-01-22 21:35:00
3:55 PM,3.2,-5.8,66,30.11,1.8,NW,27.6,36.8,N/A,,Haze,320,2014-01-22 21:55:00
4:15 PM,1.4,-5.8,72,30.12,2.0,NW,27.6,34.5,N/A,,Haze,320,2014-01-22 22:15:00
4:35 PM,1.4,-7.6,66,30.14,6.0,NW,24.2,32.2,N/A,,Haze,310,2014-01-22 22:35:00
4:55 PM,1.4,-5.8,72,30.16,1.2,NW,26.5,32.2,N/A,,Haze,310,2014-01-22 22:55:00
5:15 PM,1.4,-5.8,72,30.18,1.8,NW,20.7,29.9,N/A,Snow,Light Snow,320,2014-01-22 23:15:00
5:30 PM,-0.4,-7.6,72,30.19,0.5,NW,21.9,31.1,N/A,Snow,Light Snow,320,2014-01-22 23:30:00
5:55 PM,-0.4,-9.4,66,30.21,2.5,NW,28.8,34.5,N/A,,Haze,320,2014-01-22 23:55:00
6:15 PM,-0.4,-9.4,66,30.22,3.0,NW,27.6,33.4,N/A,,Haze,320,2014-01-23 00:15:00
6:35 PM,-0.4,-7.6,72,30.24,1.8,NW,24.2,-,N/A,Snow,Light Snow,320,2014-01-23 00:35:00
6:55 PM,-0.4,-9.4,66,30.25,6.0,NNW,26.5,-,N/A,,Haze,330,2014-01-23 00:55:00
7:15 PM,-2.2,-9.4,71,30.27,5.0,NNW,25.3,32.2,N/A,,Haze,330,2014-01-23 01:15:00
7:35 PM,-2.2,-9.4,71,30.28,4.0,NNW,20.7,31.1,N/A,,Haze,330,2014-01-23 01:35:00
7:55 PM,-2.2,-9.4,71,30.29,6.0,NNW,18.4,25.3,N/A,,Haze,330,2014-01-23 01:55:00
8:10 PM,-2.2,-9.4,71,30.30,-9999.0,NW,16.1,23.0,N/A,,Overcast,320,2014-01-23 02:10:00
8:35 PM,-4.0,-11.2,71,30.32,4.0,NW,20.7,-,N/A,,Haze,310,2014-01-23 02:35:00
8:55 PM,-4.0,-13.0,65,30.33,10.0,NW,18.4,25.3,N/A,,Overcast,310,2014-01-23 02:55:00
9:15 PM,-4.0,-13.0,65,30.35,10.0,NW,16.1,-,N/A,,Overcast,310,2014-01-23 03:15:00
9:35 PM,-5.8,-14.8,65,30.35,10.0,NW,18.4,-,N/A,,Mostly Cloudy,310,2014-01-23 03:35:00
9:55 PM,-5.8,-14.8,65,30.36,10.0,NW,17.3,23.0,N/A,,Scattered Clouds,310,2014-01-23 03:55:00
10:15 PM,-5.8,-14.8,65,30.36,10.0,NW,19.6,-,N/A,,Partly Cloudy,320,2014-01-23 04:15:00
10:35 PM,-5.8,-16.6,60,30.37,10.0,NW,17.3,24.2,N/A,,Partly Cloudy,310,2014-01-23 04:35:00
10:55 PM,-5.8,-16.6,60,30.38,10.0,NW,19.6,-,N/A,,Scattered Clouds,310,2014-01-23 04:55:00
11:15 PM,-7.6,-16.6,65,30.39,10.0,NW,18.4,-,N/A,,Partly Cloudy,310,2014-01-23 05:15:00
11:35 PM,-7.6,-16.6,65,30.40,10.0,NW,17.3,-,N/A,,Clear,310,2014-01-23 05:35:00
11:55 PM,-7.6,-18.4,59,30.41,10.0,NW,18.4,24.2,N/A,,Clear,310,2014-01-23 05:55:00